Location: Moscow
(38.8570°N, 84.2291°W)
Time: 22:27:03
(UTC+00:00)

Helios 1A Rocket - Pass Details

Date: 15 November 2025
Orbit: 438 x 450 km, 98.3° (Epoch: 14 December)

Event Time Altitude Azimuth Distance (km) Brightness Sun altitude
Exits shadow 23:48:21 24° 22° (NNE) 975 3.8 -16.7°
Maximum altitude 23:50:16 71° 102° (ESE) 475 2.2 -17.1°
Drops below altitude 10° 23:53:36 10° 187° (S) 1,564 5.3 -17.7°
Sets 23:55:37 0° 190° (S) 2,433 6.4 -18.1°
